Volver al catálogo

THORAD AGENA D DEB

ActivoPO
NORAD 4658·DEBRIS·🇺🇸 United States

Lanzado Apr 8, 1970 desde Vandenberg Space Force Base

Loading…

Próximos Pases (próximas 24 horas)

TLE

ActualizadoSource: Space-Track

Época: Sep 14, 2026, 03:48 UTC

1 04658U 70025AS  26257.15837721  .00001424  00000-0  10093-2 0  9999
2 04658  99.9458 235.3670 0025371 325.3507  34.6000 13.99494495830841

Sigue THORAD AGENA D DEB en tiempo real con AllMySat

Download on the App Store